Temp
17 18 18 18 18 18 18 18 18 19 19 20 20 20 21 21 21 21 21 21 21 21 22 22 22 22 21 21 20 20 15 14 15 16 12 13 12 12 11 10 10 10 9 9 9
17 18 18 18 18 18 18 19 19 19 19 20 20 20 21 21 21 21 21 21 22 22 22 22 22 21 21 20 20 17 12 15 16 14 12 13 13 12 10 10 9 9 9 9 8
17 17 18 18 18 18 18 19 19 19 20 20 20 21 21 21 21 20 21 21 21 22 22 22 22 22 19 19 18 16 13 14 14 14 14 12 10 11 9 7 8 8 9 8 8
17 17 17 18 18 18 18 19 19 20 20 20 21 21 21 21 20 21 21 22 21 21 22 22 22 21 16 14 17 14 14 14 14 13 13 11 10 8 9 8 9 9 9 9 8
17 17 17 18 18 18 18 19 19 20 20 20 21 21 21 21 20 20 21 21 21 21 21 22 22 20 15 15 15 12 13 13 13 13 11 11 9 8 8 9 9 10 9 8 8
17 17 17 17 18 18 19 19 19 20 20 20 21 21 21 21 20 20 21 21 21 21 21 22 21 19 17 16 14 13 13 12 12 12 11 9 9 10 9 9 9 10 9 8 7
17 17 17 17 18 18 19 19 19 20 20 20 21 21 20 20 20 20 20 20 20 21 20 20 20 20 16 13 14 13 11 11 12 12 11 11 9 8 9 9 10 9 9 8 7
17 17 17 17 18 18 19 19 20 20 21 21 21 21 20 20 20 20 19 20 20 20 20 19 19 18 16 15 14 13 11 10 11 11 11 10 8 8 9 10 10 9 8 8 7
16 17 17 18 18 18 19 19 20 20 20 21 21 20 20 20 19 20 20 20 19 20 20 19 19 16 15 13 13 13 12 12 11 12 10 10 7 8 9 9 9 9 8 7 7
16 17 17 18 18 19 19 20 19 20 20 21 21 20 19 20 19 19 19 19 19 19 19 19 18 13 11 11 14 15 14 13 11 11 10 9 8 7 9 9 9 9 8 7 6
16 17 17 18 18 19 19 20 20 20 20 20 20 20 19 19 19 19 19 19 19 19 18 20 13 13 15 15 15 15 15 15 12 13 12 10 8 6 9 9 9 8 7 6 6
16 17 17 18 18 18 19 19 20 20 20 20 20 20 19 19 19 19 19 19 19 18 20 14 14 15 15 16 16 15 16 13 12 12 11 10 10 7 8 8 9 8 7 6 5
16 16 17 18 18 19 19 19 19 19 19 19 19 19 19 19 18 19 19 19 18 16 14 14 15 16 16 14 14 12 14 12 12 11 11 11 8 7 8 9 9 7 6 6 5
16 17 17 18 18 18 18 19 19 19 15 18 19 19 19 18 17 18 18 18 19 16 14 15 16 16 16 14 13 14 12 13 12 11 10 10 9 8 7 7 7 6 6 5 5
15 17 16 17 18 18 18 19 19 19 16 18 18 18 18 18 18 17 18 18 17 16 16 15 14 14 14 13 13 13 12 12 13 11 11 11 8 6 6 7 6 5 6 5 5
15 16 16 17 17 18 18 18 19 15 16 18 18 18 18 18 18 17 18 18 18 16 13 13 14 13 13 13 13 13 12 12 11 9 9 10 10 7 6 7 6 6 5 5 4
15 15 16 16 17 17 18 18 15 15 20 17 17 18 17 18 18 17 17 16 15 15 15 14 14 12 13 13 13 12 10 9 13 10 11 12 9 7 6 6 6 6 5 5 4
14 15 16 17 17 17 18 15 16 18 19 19 19 18 18 18 17 17 17 15 16 16 14 14 15 12 12 12 12 11 10 9 15 11 10 11 9 8 6 7 7 6 5 5 4
14 15 16 17 17 17 18 13 15 19 20 18 19 18 18 18 18 17 16 14 14 14 15 16 15 12 11 11 11 13 10 10 10 9 8 8 8 7 6 6 6 6 5 4 3
14 15 15 16 16 16 14 14 17 19 20 19 19 17 16 16 17 15 15 14 13 13 13 15 14 12 11 11 12 12 11 11 7 9 12 9 10 7 5 5 5 5 4 4 3
13 14 15 15 15 16 12 14 18 19 19 19 20 19 19 17 16 17 16 13 14 12 13 14 13 12 11 11 11 10 10 10 8 6 6 8 9 7 5 5 4 5 4 4 3
13 11 15 14 14 14 13 17 19 17 18 18 18 19 19 17 18 19 16 13 13 13 14 13 11 11 12 10 10 11 12 9 5 9 4 2 6 7 4 6 6 5 4 4 3
12 13 14 14 11 11 15 17 17 17 17 17 18 18 17 18 18 16 11 10 11 12 13 12 11 11 13 10 9 10 10 9 5 3 6 4 8 5 5 5 5 5 4 4 3
11 9 13 13 14 14 14 16 15 16 17 18 17 17 17 17 15 14 11 10 10 10 10 11 11 11 11 13 9 10 9 8 7 2 4 5 8 6 4 4 5 5 4 4 3
11 10 12 8 11 13 14 15 16 14 15 17 16 16 15 14 15 14 10 9 9 10 10 9 11 13 13 12 12 11 8 7 5 7 7 10 7 8 6 3 5 5 4 3 3
10 11 12 11 13 13 11 14 16 15 13 15 15 15 13 14 14 13 10 9 10 8 8 8 11 13 12 11 11 10 9 7 7 7 6 7 7 7 6 6 5 5 4 3 3
9 10 11 10 10 12 11 13 15 17 16 16 15 14 14 14 13 13 15 14 11 7 7 7 8 8 11 12 11 10 8 8 7 7 7 8 7 4 4 4 5 5 4 4 3
Height
1540 1540 1539 1539 1539 1539 1539 1539 1540 1540 1540 1540 1540 1540 1539 1538 1538 1537 1537 1537 1535 1534 1534 1534 1533 1533 1534 1534 1534 1533 1543 1554 1553 1551 1560 1560 1563 1568 1572 1572 1574 1577 1580 1582 1581
1540 1540 1539 1540 1539 1540 1540 1539 1540 1539 1540 1540 1540 1539 1538 1537 1537 1537 1537 1535 1533 1533 1533 1533 1532 1534 1534 1535 1535 1535 1552 1554 1550 1552 1557 1561 1562 1568 1573 1574 1577 1579 1580 1580 1578
1540 1540 1540 1540 1540 1540 1540 1540 1539 1539 1539 1539 1539 1538 1537 1536 1537 1537 1536 1534 1532 1532 1532 1533 1533 1533 1536 1538 1539 1542 1553 1553 1555 1553 1557 1562 1566 1568 1571 1578 1579 1579 1578 1578 1577
1540 1539 1539 1540 1540 1540 1540 1540 1539 1539 1538 1538 1538 1537 1536 1536 1540 1536 1535 1534 1533 1532 1532 1532 1533 1534 1540 1543 1543 1550 1554 1554 1559 1558 1560 1564 1567 1571 1573 1578 1578 1577 1578 1577 1574
1541 1540 1539 1540 1539 1540 1540 1539 1539 1538 1538 1538 1537 1536 1537 1537 1538 1536 1535 1534 1532 1531 1531 1531 1530 1534 1540 1545 1546 1553 1557 1558 1559 1561 1564 1566 1570 1572 1576 1576 1577 1577 1577 1575 1573
1541 1540 1539 1539 1539 1539 1539 1539 1538 1538 1538 1537 1536 1536 1536 1538 1537 1536 1535 1534 1532 1531 1530 1530 1531 1533 1539 1545 1548 1554 1557 1560 1562 1563 1566 1568 1572 1572 1577 1576 1577 1577 1576 1574 1572
1541 1540 1539 1539 1539 1538 1539 1538 1538 1537 1538 1537 1536 1536 1536 1538 1536 1536 1535 1534 1533 1532 1532 1533 1533 1535 1542 1549 1553 1556 1562 1563 1564 1565 1566 1567 1574 1576 1575 1576 1576 1576 1575 1573 1572
1540 1540 1539 1538 1538 1537 1537 1537 1537 1536 1537 1536 1536 1536 1535 1536 1535 1536 1536 1535 1535 1534 1534 1535 1535 1536 1542 1549 1556 1557 1561 1568 1564 1564 1565 1568 1575 1574 1574 1574 1575 1575 1574 1573 1571
1539 1539 1538 1537 1537 1537 1536 1536 1535 1536 1536 1536 1536 1536 1536 1536 1536 1535 1536 1536 1536 1536 1536 1536 1536 1541 1548 1552 1558 1558 1564 1561 1565 1561 1564 1566 1574 1572 1572 1572 1573 1573 1573 1572 1571
1539 1537 1537 1537 1536 1536 1535 1534 1535 1535 1535 1535 1535 1538 1537 1536 1535 1534 1534 1535 1535 1536 1537 1537 1539 1545 1551 1556 1564 1558 1557 1558 1561 1560 1561 1564 1568 1569 1569 1571 1571 1572 1571 1570 1570
1537 1536 1536 1536 1536 1534 1535 1534 1537 1536 1534 1534 1534 1534 1534 1535 1535 1534 1534 1535 1535 1536 1538 1536 1547 1555 1550 1548 1549 1550 1551 1552 1557 1554 1558 1561 1564 1567 1567 1569 1569 1570 1570 1569 1568
1536 1535 1534 1534 1535 1534 1534 1535 1535 1537 1534 1533 1533 1533 1534 1534 1535 1535 1535 1535 1535 1537 1534 1544 1552 1548 1547 1547 1547 1548 1549 1556 1556 1556 1559 1557 1557 1563 1565 1566 1567 1568 1569 1567 1566
1535 1534 1533 1533 1533 1534 1534 1535 1534 1534 1534 1532 1532 1532 1534 1535 1534 1534 1535 1534 1535 1540 1542 1547 1548 1547 1548 1550 1552 1556 1554 1558 1560 1557 1555 1557 1563 1564 1565 1564 1566 1569 1567 1565 1565
1532 1533 1532 1532 1535 1533 1533 1534 1534 1534 1540 1533 1532 1532 1534 1534 1535 1534 1534 1535 1535 1543 1544 1547 1547 1547 1547 1552 1554 1554 1554 1554 1555 1561 1566 1558 1569 1564 1563 1564 1567 1568 1565 1566 1565
1531 1531 1532 1531 1531 1532 1534 1533 1533 1534 1561 1532 1531 1532 1532 1535 1536 1535 1534 1535 1537 1541 1543 1550 1549 1550 1551 1553 1552 1554 1553 1554 1553 1558 1560 1559 1572 1566 1562 1566 1568 1567 1565 1564 1562
1530 1529 1530 1530 1530 1531 1532 1532 1534 1546 1555 1531 1529 1532 1533 1534 1535 1535 1535 1536 1537 1540 1544 1549 1549 1550 1552 1551 1551 1552 1553 1554 1555 1562 1572 1555 1562 1566 1566 1562 1565 1564 1563 1561 1561
1528 1527 1528 1528 1528 1529 1531 1532 1546 1555 1523 1533 1530 1530 1532 1534 1534 1534 1536 1538 1543 1550 1551 1551 1551 1551 1551 1553 1552 1553 1560 1572 1561 1570 1566 1551 1561 1559 1561 1560 1560 1562 1561 1562 1560
1526 1525 1524 1525 1527 1528 1530 1535 1549 1526 1526 1521 1522 1527 1532 1531 1534 1534 1535 1542 1539 1540 1550 1555 1553 1554 1553 1554 1555 1555 1560 1576 1559 1573 1569 1553 1564 1559 1558 1558 1559 1559 1560 1560 1559
1524 1523 1522 1523 1525 1527 1529 1546 1538 1523 1519 1522 1524 1530 1532 1530 1532 1535 1537 1541 1540 1540 1546 1546 1550 1554 1553 1554 1556 1553 1564 1561 1569 1571 1575 1561 1561 1560 1557 1558 1558 1558 1558 1558 1558
1522 1521 1521 1521 1524 1526 1530 1534 1525 1518 1518 1520 1525 1525 1537 1534 1535 1538 1537 1537 1540 1539 1539 1541 1551 1552 1554 1555 1555 1556 1557 1564 1577 1581 1567 1560 1552 1556 1559 1557 1556 1556 1556 1556 1556
1522 1521 1520 1520 1523 1524 1532 1525 1518 1518 1518 1521 1520 1521 1522 1529 1532 1533 1533 1539 1536 1539 1539 1539 1545 1556 1554 1556 1555 1561 1561 1561 1569 1579 1590 1581 1555 1544 1548 1550 1552 1553 1553 1553 1553
1521 1521 1518 1519 1522 1520 1524 1517 1515 1516 1518 1518 1520 1518 1520 1523 1527 1526 1532 1536 1537 1537 1539 1540 1548 1556 1552 1554 1553 1554 1553 1559 1582 1571 1585 1596 1564 1539 1543 1546 1548 1549 1550 1552 1552
1520 1519 1517 1517 1522 1520 1516 1514 1514 1515 1517 1519 1519 1519 1520 1521 1528 1527 1536 1539 1538 1538 1539 1541 1548 1560 1552 1557 1555 1554 1553 1555 1566 1578 1573 1590 1553 1541 1543 1544 1546 1547 1548 1549 1549
1521 1519 1516 1515 1514 1514 1515 1513 1515 1514 1515 1516 1517 1519 1522 1523 1524 1530 1537 1539 1539 1539 1540 1541 1544 1545 1554 1541 1546 1551 1552 1553 1559 1587 1575 1561 1541 1542 1542 1542 1543 1544 1544 1547 1548
1518 1514 1513 1517 1513 1512 1513 1512 1511 1515 1514 1514 1518 1518 1522 1529 1527 1529 1535 1540 1540 1540 1540 1542 1544 1538 1535 1534 1537 1540 1547 1551 1560 1551 1557 1538 1539 1530 1532 1534 1536 1539 1542 1544 1544
1515 1514 1511 1511 1510 1509 1511 1510 1507 1509 1512 1515 1516 1514 1519 1523 1522 1526 1529 1534 1533 1540 1541 1541 1542 1536 1537 1536 1537 1539 1539 1543 1547 1546 1545 1540 1533 1524 1528 1531 1534 1536 1539 1541 1542
1513 1512 1511 1509 1508 1510 1508 1506 1504 1505 1507 1507 1508 1513 1516 1518 1518 1517 1518 1519 1523 1532 1540 1542 1544 1549 1544 1535 1538 1538 1527 1531 1533 1532 1531 1534 1522 1524 1529 1529 1530 1532 1534 1536 1538
Wind_Speed
7 5 3 2 3 3 3 3 1 1 2 2 2 5 7 5 3 2 6 12 11 8 4 2 4 6 1 6 7 4 4 3 4 0 5 14 5 11 15 24 23 11 13 8 8
7 5 3 1 2 2 2 2 2 2 2 2 3 7 8 6 3 5 12 13 10 4 1 1 9 3 4 5 5 6 4 4 4 8 6 12 11 18 8 12 11 9 6 8 10
7 5 3 1 1 1 1 2 2 2 2 3 6 6 5 3 4 5 11 10 7 3 1 1 2 2 7 6 7 5 4 5 12 25 24 17 16 4 17 6 6 4 6 8 13
7 4 2 0 0 0 2 3 3 2 2 4 6 3 2 3 3 7 9 7 5 3 2 1 5 5 5 5 4 6 11 8 11 15 10 5 7 8 10 6 5 5 3 8 13
7 4 2 0 1 2 4 4 4 2 2 5 7 1 2 2 2 7 8 6 7 3 2 6 5 8 6 8 16 11 10 14 18 17 16 14 11 8 8 6 2 6 2 9 14
6 5 2 1 2 3 4 5 4 2 2 4 5 4 3 1 3 5 8 5 4 5 1 2 4 15 13 6 6 13 17 14 13 10 12 11 9 4 2 3 2 4 6 11 13
7 5 4 2 3 4 4 5 4 2 2 3 2 2 2 3 2 2 7 9 8 7 10 8 4 1 10 9 18 23 7 7 8 13 5 15 5 4 5 0 3 4 9 12 12
7 6 4 4 4 5 4 5 4 3 2 2 1 1 1 1 3 2 3 7 10 10 11 8 9 16 7 20 10 4 4 3 5 12 7 6 2 7 6 4 2 8 11 10 12
8 7 6 5 5 6 4 5 1 2 1 0 1 1 0 0 3 3 4 2 5 8 8 8 10 12 10 5 2 2 3 4 3 16 6 4 3 10 9 5 3 8 8 9 11
9 7 7 6 6 6 4 3 3 2 2 3 2 1 4 3 4 3 1 3 1 2 2 2 5 4 4 3 2 2 4 4 5 7 6 6 3 9 12 6 4 4 5 7 11
10 8 7 7 6 6 5 5 3 1 2 3 3 2 5 4 3 7 2 2 2 2 1 3 6 2 2 2 3 4 4 1 2 3 4 6 6 10 15 9 4 3 4 8 11
11 8 7 6 6 5 4 2 3 1 4 4 4 5 6 4 3 3 1 1 4 3 2 7 2 1 3 2 3 4 3 3 2 2 3 3 1 9 14 7 6 1 6 8 11
10 10 6 5 4 3 3 7 7 6 3 4 5 3 3 5 1 3 1 1 4 5 5 5 3 1 2 3 6 4 2 3 3 3 3 3 4 6 7 9 5 6 6 8 11
8 10 7 3 1 2 4 6 7 2 3 3 4 2 5 4 2 4 4 2 3 5 5 4 2 2 3 3 2 2 1 2 4 2 2 4 4 4 5 5 7 4 7 9 11
9 8 7 4 3 2 3 6 3 0 2 4 4 5 4 2 5 2 4 3 3 4 5 1 2 4 4 0 1 3 1 1 2 1 2 2 2 5 6 3 3 3 7 7 9
9 7 5 6 6 5 6 2 2 4 5 3 5 4 3 4 2 3 2 4 4 4 6 2 2 2 1 2 2 1 2 1 2 2 2 4 4 4 4 5 3 2 1 3 8
9 7 6 9 6 5 4 2 4 2 0 4 4 5 4 4 2 4 4 2 3 3 1 1 1 1 0 2 2 2 4 4 4 4 4 1 2 5 4 4 5 6 2 2 7
10 8 8 9 12 3 5 4 3 5 3 3 4 5 4 5 2 1 2 1 0 2 3 5 3 2 4 2 1 2 4 4 3 3 5 2 5 4 5 7 6 6 5 3 7
10 8 7 7 11 6 7 3 6 2 3 5 4 4 4 2 3 3 5 5 2 2 5 2 1 0 3 2 1 2 3 3 3 3 3 3 1 3 4 3 5 8 4 3 6
8 6 8 5 5 8 3 5 4 1 2 3 3 6 7 5 4 5 6 0 4 1 1 1 1 3 2 0 1 2 3 2 3 1 4 5 2 4 7 7 5 4 4 0 4
5 3 4 9 6 8 4 6 3 3 3 1 2 4 4 6 6 4 3 2 1 3 1 0 3 1 2 3 4 1 1 2 4 5 4 3 6 5 9 8 7 6 6 1 2
3 1 2 11 4 4 3 4 3 3 1 0 1 1 2 5 5 2 6 1 2 5 4 1 4 3 2 1 1 1 3 5 4 4 2 4 6 4 9 12 11 8 8 2 1
3 4 4 14 3 2 5 4 2 3 3 2 1 2 3 2 3 2 4 0 1 2 4 3 1 2 1 2 2 3 4 4 5 3 5 4 6 5 9 10 13 12 8 4 2
3 1 4 12 9 2 5 4 5 3 2 3 3 4 2 2 3 4 3 1 2 1 2 1 2 6 6 5 5 4 5 5 5 3 3 6 6 6 8 8 13 13 10 5 3
5 5 3 2 5 6 3 2 5 6 5 6 1 5 7 4 3 4 3 2 1 2 2 3 5 3 5 4 5 5 5 9 8 5 6 3 5 4 7 12 19 17 12 7 5
3 4 3 3 4 3 6 5 4 3 8 4 5 6 7 5 8 9 7 5 5 3 5 2 3 1 3 3 4 5 8 11 7 4 9 11 16 3 10 16 16 16 13 9 7
4 8 5 2 2 2 4 6 5 0 6 6 10 4 3 6 10 9 6 10 14 9 7 6 4 2 4 2 4 8 9 13 6 6 7 7 8 12 6 13 16 18 17 12 10
Wind_Direction
14 14 15 58 86 93 87 87 61 14 339 318 320 334 337 352 340 312 351 340 331 313 310 36 41 76 46 18 2 335 62 40 21 185 134 134 114 74 94 85 72 86 69 38 357
16 14 22 46 106 109 72 60 5 356 345 340 325 326 331 340 96 66 353 340 336 326 303 335 340 159 70 12 16 51 76 47 336 130 144 125 116 133 100 90 64 66 57 20 354
11 20 23 27 116 121 13 343 341 351 354 340 337 332 339 29 108 335 350 341 338 336 126 130 41 63 63 39 18 36 106 95 53 103 110 110 72 120 116 62 72 47 45 6 356
6 19 22 81 116 339 339 333 335 334 358 14 354 337 10 23 143 343 355 359 22 9 150 283 290 96 79 37 55 93 70 91 100 99 93 74 93 71 79 127 87 51 45 359 360
356 359 14 289 246 323 334 337 326 314 10 357 348 290 325 63 44 358 353 35 59 24 303 291 301 119 113 119 73 83 91 87 100 97 97 110 94 112 101 111 83 42 16 14 5
344 343 336 273 260 321 327 329 317 305 336 5 26 51 5 257 306 6 28 30 46 60 79 272 126 124 91 65 67 116 109 106 108 106 128 114 140 72 134 138 315 21 54 19 12
333 328 316 285 264 306 312 323 308 276 306 357 344 304 4 99 332 49 51 48 45 52 98 91 86 188 103 90 121 124 100 108 144 151 143 125 112 120 154 319 71 27 36 19 13
334 313 306 294 280 288 301 315 298 256 277 312 3 11 72 8 332 127 96 62 59 67 97 100 96 99 101 125 123 86 117 141 208 181 167 135 183 180 170 143 108 50 29 22 17
332 310 299 295 291 286 296 304 292 229 236 1 132 309 309 169 341 318 175 136 58 45 72 78 86 96 121 104 68 164 263 152 180 192 159 164 148 191 182 190 90 40 29 21 12
325 316 293 288 292 287 282 292 281 294 248 256 237 165 182 188 0 15 138 206 133 264 305 186 88 82 34 80 229 267 278 102 178 208 173 188 168 182 191 185 120 24 49 29 17
323 317 295 283 290 290 282 312 341 122 206 224 178 146 149 165 47 22 126 137 163 225 188 179 70 124 192 164 232 254 260 355 128 152 168 232 173 186 190 196 160 358 61 46 22
322 314 299 278 284 284 285 329 324 270 288 235 215 192 188 182 148 54 118 87 197 213 182 30 99 194 316 312 322 300 316 26 71 150 142 293 270 184 181 192 185 309 75 43 9
317 314 303 279 285 297 277 283 298 285 253 208 195 194 164 170 125 332 158 170 84 60 40 135 194 199 260 43 25 44 68 358 276 235 251 340 325 162 207 158 181 93 70 30 15
316 313 304 260 179 149 280 288 284 214 54 227 205 178 162 145 61 36 96 68 64 130 119 112 214 259 256 87 31 289 307 298 295 80 274 130 291 222 188 176 97 80 50 31 8
313 310 302 223 151 115 299 319 211 193 340 161 138 156 178 139 146 30 91 80 87 73 84 22 71 15 65 127 47 232 248 255 268 226 30 245 85 278 138 193 130 56 49 22 3
310 310 285 255 219 233 290 274 197 46 257 132 133 163 142 176 139 117 70 91 112 86 45 99 75 78 198 291 206 13 353 274 357 87 2 227 132 232 193 184 166 42 36 6 359
300 298 267 231 207 219 265 136 56 161 151 180 180 159 201 162 165 192 164 101 145 105 240 106 161 182 328 329 9 39 49 349 357 6 238 197 47 263 161 150 165 182 180 50 357
296 289 261 236 229 204 184 65 167 238 143 171 130 169 163 155 135 169 131 151 282 145 150 162 297 3 330 87 198 313 123 141 269 293 280 17 244 300 186 176 165 170 141 39 0
300 285 268 238 222 207 165 108 209 312 145 141 105 148 203 172 149 160 204 157 146 107 165 152 252 137 66 39 106 309 65 166 105 320 6 231 29 324 215 202 184 160 137 41 8
308 286 261 216 212 176 100 212 223 53 17 130 161 161 194 202 154 174 183 212 155 121 83 196 93 202 177 38 320 62 186 71 20 0 290 294 266 234 224 212 184 155 151 21 349
303 290 239 196 181 169 189 219 197 121 76 37 241 181 168 174 180 212 178 324 123 171 132 128 111 188 75 193 178 68 78 74 121 139 177 302 275 220 196 183 184 187 173 215 319
237 287 203 189 158 193 202 207 168 142 161 45 269 21 71 153 180 238 175 334 93 160 156 202 142 171 242 250 54 123 173 137 121 251 197 146 274 173 163 174 177 191 179 171 318
248 262 236 188 175 232 267 191 170 137 170 184 258 56 39 181 174 107 115 11 118 66 169 172 230 25 269 319 343 211 201 122 114 79 208 138 264 180 176 182 194 181 180 188 221
256 309 197 202 239 202 210 224 172 164 165 180 123 98 62 227 41 159 126 155 186 59 147 110 194 173 199 204 140 178 179 173 137 126 200 229 282 208 216 212 188 189 187 190 224
222 245 217 244 273 215 314 273 163 174 210 170 139 178 177 208 152 183 117 106 265 216 186 138 212 217 241 195 174 189 172 192 193 200 172 252 243 211 218 194 188 183 183 184 204
219 238 210 263 280 224 176 242 197 172 149 219 190 194 212 197 195 207 139 187 196 167 179 185 253 345 289 160 199 247 212 199 215 241 270 267 284 176 138 152 169 188 187 195 214
257 259 266 262 308 132 222 211 226 170 216 188 198 174 202 167 98 95 179 168 158 150 187 155 150 99 272 255 307 293 211 182 184 203 167 200 227 154 170 184 193 191 195 207 218